Location: Spring Creek
(38.2870°N, 100.2160°W)
Time: 13:11:17
(UTC+00:00)

Cosmos 1892 Rocket - Pass Details

Date: 08 May 2021
Orbit: 607 x 632 km, 82.5° (Epoch: 22 June)

Event Time Altitude Azimuth Distance (km) Brightness Sun altitude
Rises 10:48:56 0° 184° (S) 2,866 6.6 -9.1°
Reaches altitude 10° 10:51:09 10° 184° (S) 1,962 5.8 -8.7°
Maximum altitude 10:55:29 84° 98° (E) 619 3.6 -8.0°
Drops below altitude 10° 10:59:50 10° 9° (N) 1,966 6.7 -7.2°
Sets 11:02:04 0° 8° (N) 2,873 7.6 -6.9°
